www.pogodaiklimat.ru

Погода и климат >> Архив погоды >> Индонезия >> Энаротали


ПОГОДА в Энаротали

  • Прогноз погоды в Энаротали
  • Монитор погоды в Энаротали

АРХИВ ПОГОДЫ в Энаротали

Время (UTC), дата Ветер
(напр.,м/с)
 
Видим.   Явления Облачность Т
(С)
Тd
(С)
f
(%)
Тe
(С)
Тes
(С)
Комфортность P
(гПа)
Po
(гПа)
Тmin
(С)
Tmax
(С)
R
(мм)
R24
(мм)
S
(см)
00 14.06 штиль 0 7000 м в посл. час дождь 9/4 210 м
[Cu Sc Ac As Ci sp]
+19.0 +17.2 89 +20 +25 1010.6 825.3 +17.0 0.0
03 14.06 штиль 0 7000 м мгла 6/4 210 м
[Cu med, cong Ac lent Ci sp]
+23.0 +17.3 70 +28 +40 душно 1008.6 823.7
06 14.06 штиль 0 7000 м слаб. морось {дождь} 9/8 240 м
[Cu Sc Ac As Ci sp]
+22.2 +18.3 79 +27 +29 душно 1006.8 822.2 2
09 14.06 ЮВ 2 3000 м в посл. час дождь {морось} 10/9 210 м
[Cu Sc As trans]
+21.0 +18.3 85 +26 +26 душно 1008.0 823.2 2
12 14.06 штиль 0 1000 м слаб. дождь {морось} 10/9 210 м
[St As op]
+18.6 +16.7 89 +19 +19 1010.5 825.3 +23.4 12
21 14.06 штиль 0 3000 м осадки на расстоянии 10/4 150 м
[Cu Sc As op]
+17.4 +15.8 90 +17 +17 1009.9 824.7 2
00 15.06 штиль 0 8000 м 8/4 210 м
[Cu Sc Ac und Ci sp]
+18.8 +15.0 79 +20 +25 1011.2 825.8 +16.8 18
03 15.06 З 3 5000 м осадки на расстоянии 9/4 210 м
[Cu Sc Ac As Ci sp]
+21.0 +17.4 80 +25 +30 комфорт 1009.8 824.6
06 15.06 Ю 2 8000 м осадки на расстоянии 9/5 240 м
[Cu Sc Ac lent Ci sp]
+22.2 +16.4 70 +26 +29 душно 1007.6 822.8
09 15.06 штиль 0 3000 м слаб. дождь {морось} 10/8 180 м
[Cu Sc As trans]
+20.6 +17.2 81 +24 +24 комфорт 1008.6 823.7 5
12 15.06 Ю 5 500 м слаб. дождь {морось} 10/8 180 м
[Cu Sc As trans]
+19.8 +17.4 86 +22 +22 комфорт 1011.5 826.1 +22.4 16
21 15.06 штиль 0 3000 м осадки на расстоянии 10/4 210 м
[Cu Sc As op]
+16.2 +14.6 90 +16 +16 1010.3 825.0 15
00 16.06 штиль 0 7000 м мгла 6/4 240 м
[Cu Sc Ac lent]
+19.0 +16.5 85 +20 +26 1011.1 825.7 +16.0 36
03 16.06 ЮЗ 4 7000 м мгла 6/4 240 м
[Cu med, cong Ac trans Ci sp]
+22.8 +16.7 68 +27 +34 душно 1009.0 824.0
06 16.06 З 6 8000 м осадки на расстоянии 9/6 270 м
[Cb cap Ac trans Ci ing]
+22.8 +18.0 74 +28 +29 душно 1007.0 822.4
09 16.06 штиль 0 5000 м осадки на расстоянии 10/6 270 м
[Cb cap Ac trans Ci ing]
+20.4 +16.0 76 +23 +23 комфорт 1009.5 824.5
12 16.06 В 3 1000 м слаб. дождь 10/9 210 м
[Cu Sc As trans]
+19.2 +16.7 85 +21 +21 комфорт 1011.4 826.0 +24.4 1
21 16.06 штиль 0 5000 м осадки на расстоянии 10/4 240 м
[Cu Sc As op]
+17.2 +15.6 90 +17 +17 1010.2 825.0 9
00 17.06 штиль 0 5000 м осадки на расстоянии 10/9 150 м
[Frnb As op]
+18.2 +16.0 87 +19 +19 1011.2 825.8 +17.0 10
03 17.06 З 4 7000 м мгла 9/8 150 м
[Cu Sc Ac As Ci fib]
+21.6 +16.7 74 +26 +27 душно 1009.1 824.1
06 17.06 ЮВ 2 8000 м осадки на расстоянии 9/5 270 м
[Cu Sc Ac und Ci sp]
+22.0 +16.5 71 +26 +29 душно 1007.4 822.7
09 17.06 штиль 0 7000 м мгла 10/6 270 м
[Cu Sc Ac As]
+19.6 +16.8 84 +22 +22 комфорт 1009.0 824.0
12 17.06 штиль 0 1000 м слаб. дождь 10/6 270 м
[Cb cap Ac As]
+19.4 +16.3 82 +21 +21 комфорт 1011.4 826.0 +22.8 0.0
21 17.06 штиль 0 2000 м слаб. дождь 10/9 120 м
[Frnb As op]
+17.0 +15.4 90 +17 +17 1010.5 825.3 19
00 18.06 штиль 0 7000 м мгла {дождь} 8/4 240 м
[Cu Sc Ac lent Ci sp]
+18.6 +16.1 85 +19 +24 1011.0 825.6 +17.0 0.0
03 18.06 штиль 0 7000 м мгла 8/4 240 м
[Cu Sc Ac lent Ci sp]
+22.2 +16.4 70 +26 +36 душно 1008.9 823.9
06 18.06 ЮВ 3 7000 м осадки на расстоянии 9/6 270 м
[Cb cap Ac cuf Ci ing]
+22.0 +15.8 68 +26 +28 душно 1007.3 822.6
09 18.06 ЮЗ 3 2000 м в посл. час морось 10/9 120 м
[Cu Sc As trans]
+19.6 +15.8 79 +22 +22 комфорт 1008.7 823.7 0.0
12 18.06 Ю 4 1000 м слаб. дождь {морось} 10/9 120 м
[Cu Sc As trans]
+17.4 +15.2 87 +17 +17 1010.9 825.6 +22.4 1
21 18.06 штиль 0 6000 м осадки на расстоянии 8/4 210 м
[Cu Sc Ac As Ci sp]
+16.4 +14.5 89 +16 +16 1009.9 824.8 0.3
00 19.06 штиль 0 7000 м мгла 9/4 210 м
[Cu Sc Ac As Ci sp]
+19.6 +15.8 79 +21 +26 комфорт 1010.5 825.3 +16.0 1
03 19.06 З 4 8000 м 8/4 210 м
[Cu med, cong Ac trans Ci sp]
+22.6 +17.0 71 +27 +33 душно 1007.9 823.1
06 19.06 штиль 0 8000 м осадки на расстоянии 9/6 210 м
[Cb cap Ac und Ci ing]
+23.4 +15.3 60 +28 +30 душно 1006.7 822.1
09 19.06 штиль 0 5000 м осадки на расстоянии 10/6 210 м
[Cu Sc As op]
+21.4 +16.5 74 +25 +25 комфорт 1008.1 823.3
12 19.06 штиль 0 3000 м осадки на расстоянии 10/6 210 м
[Cu Sc As op]
+19.2 +15.4 79 +21 +21 комфорт 1010.1 824.9 +24.2
21 19.06 штиль 0 6000 м осадки на расстоянии 8/4 210 м
[Cu Sc Ac As Ci sp]
+16.6 +15.0 90 +16 +16 1008.4 823.5
00 20.06 штиль 0 6000 м мгла 9/4 210 м
[Cu Sc Ac As Ci sp]
+18.6 +15.4 82 +19 +24 1010.0 824.8 +16.4
03 20.06 З 3 7000 м мгла 9/4 210 м
[Cu Sc Ac lent Ci sp]
+22.0 +16.5 71 +26 +32 душно 1008.4 823.5
06 20.06 З 2 8000 м 9/4 270 м
[Cu Sc Ac trans]
+23.0 +15.9 64 +27 +30 душно 1006.8 822.2
09 20.06 штиль 0 7000 м мгла 10/5 210 м
[Cu Sc Ac As]
+20.6 +15.9 74 +23 +23 комфорт 1008.7 823.8
12 20.06 штиль 0 3000 м осадки на расстоянии 10/6 210 м
[Cu Sc Ac As]
+19.2 +15.8 81 +21 +21 комфорт 1011.2 825.8 +23.2

 

Местоположение метеостанции Энаротали (Индонезия): широта -3.92 долгота 136.37 высота над уровнем моря 1770 м.

В архиве по умолчанию представлена погода в Энаротали за последнюю неделю. Архивные данные за месяц целиком и за предыдущие месяцы, начиная с января 2011 года, Вы можете получить, выбрав интересующий диапазон дат из раскрывающегося списка и нажав кнопку "Ввод!".


*Определитесь, кто Вы:
робот инопланетянин человек

Внимание! Время в таблицах - всемирное. Для получения местного времени необходимо прибавить поправку, которая равна 9 ч.

Смотрите также архив погоды в соседних городах и на ближайших метеорологических станциях:

Погода в Набире (Индонезия) (117 км)
Погода в Коконао (Индонезия) (170 км)
Погода в Серуи (Индонезия) (229 км)
Погода в Вамене (Индонезия) (287 км)
Погода в Каимана (Индонезия) (292 км)
Погода в Биаке (Индонезия) (306 км)
Погода в Сарми (Индонезия) (349 км)
Погода в Маноквари (Индонезия) (425 км)
Погода в Туале (Индонезия) (446 км)
Погода в Факфаке (Индонезия) (470 км)

Пояснения к столбцам:

Ветер - указаны скорость ветра в м/с - средняя за 10 мин, порывы в срок и между сроками (в фигурных скобках) и направление, откуда дует ветер: С - северный, СВ - северо-восточный, В - восточный, ЮВ - юго-восточный, Ю - южный, ЮЗ - юго-западный, З - западный, СЗ - северо-западный.
Видимость - горизонтальная дальность видимости в метрах или километрах. При видимости от 1 до 10 км при отсутствии осадков обычно наблюдается дымка, при ухудшении видимости до 1 км и менее - туман. В сухую погоду видимость может ухудшаться дымом, пылью или мглою.
Явления - указаны атмосферные явления, наблюдавшиеся в срок или в последний час перед сроком; фигурными скобками обозначены явления, наблюдавшиеся между сроками (за 1-3 часа до срока); квадратными скобками обозначены град или гололедные отложения с указанием их диаметра в мм.
Облачность - указаны через наклонную черту общая и нижняя облачность в баллах и высота нижней границы облаков в метрах; квадратными скобками обозначены формы облаков: Ci - перистые, Cs - перисто-слоистые, Cc - перисто-кучевые, Ac - высококучевые, As - высокослоистые, Sc - слоисто-кучевые, Ns - слоисто-дождевые, Cu - кучевые, Cb - кучево-дождевые. Подробнее классификацию облаков см. в Атласе облаков (PDF).
T - Температура воздуха - температура, измеренная на высоте 2 м над землей.
Td - Температура точки росы - температура, при понижении до которой содержащийся в воздухе водяной пар достигнет насыщения.
f - Относительная влажность воздуха - влажноcть воздуха, измеренная на высоте 2 м над землей.
Te - Эффективная температура - температура, которую ощущает одетый по сезону человек в тени. Характеристика душности погоды. При расчете учитывается влияние влажности воздуха и скорости ветра на теплоощущения человека.
Tes - Эффективная температура на солнце - температура, которую ощущает человек, с поправкой на солнечный нагрев. Характеристика знойности погоды. Зависит от высоты солнца над горизонтом, облачности и скорости ветра. Ночью, в пасмурную погоду, а также при ветре 12 м/с и более поправка равна нулю.
P - Атмосферное давление - приведенное к уровню моря атмосферное давление.
Po - Атмосферное давление - измеренное на уровне метеостанции атмосферное давление.
Tmin - Минимальная температура - минимум температуры воздуха на высоте 2 м над землей.
Tmax - Максимальная температура - максимум температуры воздуха на высоте 2 м над землей.
R - Количество осадков - Количество выпавших осадков за период времени, мм. При наведении курсора мыши на число - период времени, за который выпало указанное количество осадков.
R24 - Количество осадков - Количество выпавших осадков за 24 часа, мм.
S - Снежный покров - Высота снежного покрова, см. При наведении курсора мыши на число - состояние снежного покрова и степень покрытия местности в баллах.